Simultaneous Nadir Overpasses (SNOs) Predictions

Prediction of SNOs between GOES-15 and METOP-C Satellite Orbit:

Table of predicted SNOs for the next 14.0 days since TLE Epoch: 12/23/2024
Index Date Time (GOES-15) GOES-15 Lat,Lon METOP-C Lat,Lon Distance(km) Time Diff (sec)
1 12/24/2024 05:26:39 -0.08, 61.36 -0.11, 61.45 10.70 80
2 12/26/2024 17:22:18 0.07, 61.41 0.18, 61.86 51.28 80
3 12/28/2024 05:41:09 -0.06, 61.38 0.83, 57.30 464.06 80
4 12/29/2024 05:23:09 -0.07, 61.38 -0.26, 62.31 105.14 80
5 12/30/2024 17:42:07 0.06, 61.43 -0.79, 57.72 422.87 80
6 12/31/2024 17:18:47 0.06, 61.44 0.36, 62.71 144.88 80
7 01/02/2025 05:37:38 -0.05, 61.43 0.69, 58.16 372.46 80
8 01/03/2025 05:19:37 -0.05, 61.43 -0.41, 63.16 196.36 80
9 01/04/2025 17:38:36 0.04, 61.48 -0.62, 58.58 331.03 80
10 01/05/2025 17:15:15 0.04, 61.50 0.48, 63.58 236.51 80
